Погода в Бардолине

Италия     45°32′54″N   10°43′26″E
темп.,
°C
ветер,
м/с
пор.,
м/с
влажн.,
%
обл.,
%
осадки,
мм/ч
давл.,
гПа
погр.,
м
22 октября, пт
пт2223:00+15сз228534 0.2 1014234
02:00+14з118229 0.2 1014156
05:00+15вюв008297 0.1 1014164
08:00+15ююв008496 0.2 1014166
11:00+16ююз2180100 0.1 1016321
14:00+16юз127766 0.1 1016423
17:00+16с11759 0.0 1015236
20:00+16с11740 0.0 1017125
23 октября, сб
сб2323:00+16с11710 0.0 101879
02:00+15ссв22711 0.0 1019118
05:00+14св33751 0.0 1019148
08:00+14ссв32733 0.0 1020173
11:00+16ссв116569 0.3 1022473
14:00+17ююз21714 0.5 1022409
17:00+17с11703 0.0 1022216
20:00+17св22673 0.0 1024141
24 октября, вс
вс2423:00+16в11679 0.0 1026134
02:00+15с22660 0.0 1026359
05:00+14св23738 0.0 1026182
08:00+13в11734 0.0 1027244
11:00+14юз11705 0.0 1028458
14:00+15юз10700 0.0 1027442
17:00+15ссз01670 0.0 1026325
20:00+15всв11640 0.0 1026142
25 октября, пн
пн2523:00+14ю11650 0.0 1026126
02:00+13зсз11680 0.0 1026173
05:00+13сз1265100 0.0 1024167
08:00+12ссз1162100 0.0 1024155
11:00+14ю1156100 0.0 1024365
14:00+15ююв2257100 0.0 1023607
17:00+15ююв1257100 0.0 1021558
20:00+14ююв236164 0.0 1023311
26 октября, вт
вт2623:00+13ююв116559 0.0 1023171
02:00+12з116867 0.0 1023165
05:00+11зсз226916 0.0 1022230
08:00+11з11705 0.0 1022178
11:00+13зюз21594 0.0 1022430
14:00+14юз1154100 0.0 1022505
17:00+14ссз115426 0.0 1021232
20:00+14с11541 0.0 1022208